Вернуться в каталог

CZ-6A DEB

АктивенSSO
NORAD 56248·DEBRIS·🇨🇳 China

Запущен Nov 11, 2022 с Taiyuan Satellite Launch Center

Loading…

Ближайшие Пролёты (ближайшие 24 часа)

TLE

СвежийSource: Space-Track

Эпоха: Sep 14, 2026, 09:22 UTC

1 56248U 22151ABQ 26257.39048340  .00000340  00000-0  23961-3 0  9990
2 56248  98.8776 239.6248 0076000 127.3221 233.4903 14.03114141178647

Отслеживайте CZ-6A DEB в реальном времени с AllMySat

Download on the App Store